Radiation Dose at Monitoring Post of Fukushima Daini Nuclear Power Station
Date,Time,MP-1(microSv/h),MP-2(microSv/h),MP-3(microSv/h),MP-4(microSv/h),MP-5(microSv/h),MP-6(microSv/h),MP-7(microSv/h),Wind Direction,Wind Velocity(m/s),Rain
2021/02/11,00:00,0.181,0.164,0.262,0.249,0.241,0.144,0.086,west,4.2,No
2021/02/11,00:10,0.181,0.163,0.263,0.247,0.241,0.143,0.087,west,5.7,No
2021/02/11,00:20,0.182,0.163,0.262,0.246,0.242,0.144,0.086,west,5.5,No
2021/02/11,00:30,0.181,0.163,0.261,0.248,0.241,0.142,0.086,west,4.3,No
2021/02/11,00:40,0.181,0.162,0.262,0.248,0.241,0.143,0.087,west,5.8,No
2021/02/11,00:50,0.181,0.163,0.262,0.249,0.241,0.143,0.086,west,5.5,No
2021/02/11,01:00,0.180,0.162,0.262,0.247,0.241,0.142,0.087,west,7.0,No
2021/02/11,01:10,0.180,0.163,0.262,0.247,0.241,0.143,0.085,west,7.5,No
2021/02/11,01:20,0.181,0.162,0.261,0.248,0.240,0.142,0.086,west,7.5,No
2021/02/11,01:30,0.181,0.162,0.261,0.248,0.242,0.143,0.087,west,9.6,No
2021/02/11,01:40,0.182,0.164,0.262,0.248,0.240,0.143,0.087,west,9.0,Yes
2021/02/11,01:50,0.181,0.162,0.263,0.248,0.241,0.143,0.086,west,9.0,Yes
2021/02/11,02:00,0.181,0.163,0.262,0.247,0.242,0.144,0.086,west-northwest,8.7,No
2021/02/11,02:10,0.181,0.163,0.262,0.248,0.241,0.143,0.087,west,7.9,No
2021/02/11,02:20,0.180,0.163,0.262,0.248,0.242,0.143,0.086,west,8.4,No
2021/02/11,02:30,0.181,0.162,0.263,0.248,0.242,0.143,0.087,west,8.7,No
2021/02/11,02:40,0.180,0.162,0.262,0.247,0.240,0.142,0.086,west-northwest,8.2,No
2021/02/11,02:50,0.181,0.163,0.262,0.248,0.243,0.143,0.086,west-northwest,9.2,No
2021/02/11,03:00,0.180,0.163,0.263,0.248,0.242,0.144,0.086,west,8.4,No
2021/02/11,03:10,0.182,0.162,0.263,0.248,0.241,0.143,0.086,west-northwest,7.4,No
2021/02/11,03:20,0.181,0.162,0.261,0.249,0.241,0.143,0.086,west,6.3,No
2021/02/11,03:30,0.182,0.164,0.262,0.248,0.242,0.143,0.086,west-northwest,5.8,No
2021/02/11,03:40,0.180,0.163,0.261,0.248,0.241,0.143,0.087,north-northwest,3.5,No
2021/02/11,03:50,0.179,0.163,0.262,0.248,0.241,0.143,0.086,northwest,5.3,No
2021/02/11,04:00,0.182,0.164,0.262,0.248,0.241,0.143,0.086,west-northwest,4.9,No
2021/02/11,04:10,0.181,0.164,0.262,0.248,0.241,0.143,0.087,northwest,5.1,Yes
2021/02/11,04:20,0.181,0.163,0.262,0.248,0.241,0.144,0.086,northwest,6.1,Yes
2021/02/11,04:30,0.181,0.164,0.262,0.247,0.241,0.143,0.087,northwest,5.3,No
2021/02/11,04:40,0.182,0.164,0.261,0.248,0.241,0.142,0.086,northwest,7.3,No
2021/02/11,04:50,0.180,0.163,0.263,0.248,0.241,0.144,0.086,northwest,8.4,No
2021/02/11,05:00,0.180,0.162,0.262,0.247,0.242,0.143,0.087,northwest,9.3,No
2021/02/11,05:10,0.182,0.163,0.261,0.247,0.242,0.142,0.086,northwest,9.5,No
2021/02/11,05:20,0.181,0.163,0.262,0.247,0.242,0.143,0.087,northwest,8.8,No
2021/02/11,05:30,0.182,0.163,0.263,0.248,0.242,0.143,0.087,west-northwest,7.7,No
2021/02/11,05:40,0.181,0.162,0.263,0.249,0.241,0.144,0.086,west-northwest,6.5,No
2021/02/11,05:50,0.182,0.162,0.263,0.248,0.242,0.144,0.087,west-northwest,5.9,No
2021/02/11,06:00,0.182,0.164,0.261,0.248,0.241,0.144,0.086,west-northwest,5.6,No
2021/02/11,06:10,0.182,0.163,0.262,0.248,0.241,0.144,0.086,west-northwest,4.6,No
2021/02/11,06:20,0.181,0.163,0.263,0.248,0.241,0.143,0.087,west-northwest,3.4,No
2021/02/11,06:30,0.181,0.163,0.263,0.249,0.242,0.144,0.087,west-northwest,2.5,No
2021/02/11,06:40,0.181,0.163,0.262,0.248,0.240,0.143,0.086,west-northwest,3.4,No
2021/02/11,06:50,0.181,0.163,0.262,0.249,0.241,0.142,0.087,west-northwest,3.0,No
2021/02/11,07:00,0.181,0.163,0.261,0.249,0.241,0.144,0.088,west,3.3,No
2021/02/11,07:10,0.181,0.163,0.262,0.248,0.240,0.144,0.087,west-northwest,2.9,Yes
2021/02/11,07:20,0.181,0.163,0.262,0.247,0.242,0.144,0.087,west-northwest,3.6,Yes
2021/02/11,07:30,0.181,0.163,0.262,0.248,0.241,0.144,0.087,west-northwest,3.5,No
2021/02/11,07:40,0.181,0.163,0.262,0.248,0.241,0.144,0.086,west-northwest,4.0,No
2021/02/11,07:50,0.181,0.163,0.263,0.247,0.242,0.143,0.086,northwest,3.2,No
2021/02/11,08:00,0.180,0.163,0.263,0.247,0.241,0.143,0.087,northwest,3.6,No
2021/02/11,08:10,0.181,0.164,0.261,0.248,0.241,0.142,0.086,northwest,3.9,No
2021/02/11,08:20,0.181,0.163,0.261,0.247,0.241,0.143,0.086,west-northwest,3.4,No
2021/02/11,08:30,0.181,0.163,0.262,0.247,0.241,0.143,0.086,west,3.5,No
2021/02/11,08:40,0.180,0.164,0.263,0.247,0.242,0.142,0.086,west,3.8,No
2021/02/11,08:50,0.181,0.163,0.261,0.249,0.241,0.144,0.086,west,6.1,No
2021/02/11,09:00,0.182,0.162,0.260,0.248,0.241,0.143,0.086,west,4.0,No
2021/02/11,09:10,0.180,0.162,0.263,0.247,0.242,0.144,0.087,west,3.9,No
2021/02/11,09:20,0.181,0.162,0.262,0.246,0.244,0.144,0.086,northwest,3.4,No
2021/02/11,09:30,0.183,0.162,0.261,0.248,0.241,0.142,0.086,west-northwest,3.7,No
2021/02/11,09:40,0.181,0.162,0.263,0.249,0.241,0.142,0.086,northwest,2.4,No
2021/02/11,09:50,0.180,0.163,0.261,0.247,0.243,0.143,0.086,west-northwest,3.9,No
2021/02/11,10:00,0.182,0.162,0.262,0.248,0.241,0.144,0.086,west-northwest,3.8,No
2021/02/11,10:10,0.181,0.163,0.262,0.247,0.242,0.143,0.086,west-northwest,2.7,No
2021/02/11,10:20,0.181,0.163,0.262,0.247,0.241,0.143,0.086,north,3.4,No
2021/02/11,10:30,0.181,0.163,0.260,0.248,0.241,0.142,0.086,northwest,4.0,Yes
2021/02/11,10:40,0.180,0.164,0.263,0.247,0.242,0.143,0.086,northwest,5.1,No
2021/02/11,10:50,0.181,0.163,0.263,0.248,0.242,0.143,0.087,north-northwest,5.6,No
2021/02/11,11:00,0.182,0.163,0.261,0.250,0.243,0.143,0.086,north-northwest,4.9,No
2021/02/11,11:10,0.181,0.162,0.262,0.248,0.243,0.143,0.086,north-northwest,2.9,No
2021/02/11,11:20,0.182,0.163,0.264,0.248,0.243,0.143,0.085,northwest,3.2,No
2021/02/11,11:30,0.182,0.163,0.261,0.249,0.242,0.143,0.086,northwest,2.7,No
2021/02/11,11:40,0.181,0.162,0.263,0.247,0.241,0.144,0.087,north-northwest,2.4,No
2021/02/11,11:50,0.181,0.164,0.263,0.248,0.242,0.144,0.086,west-northwest,1.6,No
2021/02/11,12:00,0.181,0.162,0.262,0.248,0.241,0.144,0.086,north-northwest,2.7,No
2021/02/11,12:10,0.180,0.163,0.262,0.248,0.241,0.143,0.087,north,3.1,No
2021/02/11,12:20,0.181,0.163,0.262,0.248,0.241,0.144,0.086,north,2.5,No
2021/02/11,12:30,0.181,0.162,0.261,0.249,0.242,0.142,0.087,north,2.1,No
2021/02/11,12:40,0.181,0.163,0.262,0.248,0.241,0.144,0.087,north,1.6,No
2021/02/11,12:50,0.182,0.164,0.263,0.249,0.241,0.143,0.086,north,1.3,No
2021/02/11,13:00,0.180,0.163,0.260,0.249,0.242,0.144,0.087,north-northwest,1.1,No
2021/02/11,13:10,0.181,0.164,0.261,0.248,0.241,0.143,0.086,west-northwest,0.8,No
2021/02/11,13:20,0.181,0.164,0.262,0.248,0.243,0.145,0.086,east-southeast,1.0,No
2021/02/11,13:30,0.181,0.162,0.261,0.249,0.243,0.143,0.086,north-northwest,0.9,No
2021/02/11,13:40,0.182,0.162,0.262,0.247,0.241,0.143,0.086,west-northwest,9.0,No
2021/02/11,13:50,0.181,0.163,0.262,0.249,0.242,0.142,0.085,west-northwest,9.6,No
2021/02/11,14:00,0.181,0.163,0.261,0.248,0.240,0.142,0.086,west,7.1,No
2021/02/11,14:10,0.181,0.164,0.261,0.248,0.243,0.144,0.086,west-northwest,7.5,No
2021/02/11,14:20,0.180,0.163,0.263,0.247,0.240,0.143,0.087,west-northwest,6.8,No
2021/02/11,14:30,0.182,0.162,0.261,0.248,0.242,0.143,0.086,west-northwest,6.8,No
2021/02/11,14:40,0.181,0.164,0.262,0.248,0.241,0.142,0.086,west-northwest,6.3,No
2021/02/11,14:50,0.181,0.162,0.263,0.249,0.240,0.144,0.086,west-northwest,6.5,No
2021/02/11,15:00,0.181,0.163,0.263,0.247,0.241,0.143,0.086,west-northwest,6.4,No
2021/02/11,15:10,0.180,0.164,0.262,0.248,0.241,0.143,0.086,northwest,3.7,No
2021/02/11,15:20,0.182,0.162,0.264,0.248,0.242,0.143,0.086,north-northwest,3.5,No
2021/02/11,15:30,0.181,0.163,0.263,0.248,0.240,0.143,0.086,north-northwest,4.6,No
2021/02/11,15:40,0.182,0.164,0.262,0.249,0.242,0.142,0.086,north,4.9,No
2021/02/11,15:50,0.182,0.163,0.264,0.249,0.243,0.143,0.087,north,4.3,No
2021/02/11,16:00,0.182,0.164,0.262,0.247,0.241,0.143,0.087,north-northwest,4.0,No
2021/02/11,16:10,0.181,0.163,0.262,0.249,0.244,0.143,0.086,north-northwest,2.0,No
2021/02/11,16:20,0.182,0.163,0.262,0.249,0.241,0.143,0.087,north-northwest,3.3,No
2021/02/11,16:30,0.182,0.163,0.264,0.249,0.243,0.143,0.086,north-northwest,2.7,No
2021/02/11,16:40,0.181,0.163,0.263,0.249,0.241,0.144,0.086,north,3.1,No
2021/02/11,16:50,0.182,0.163,0.263,0.247,0.241,0.144,0.087,north,2.7,No
2021/02/11,17:00,0.181,0.162,0.262,0.248,0.241,0.144,0.087,north-northwest,3.7,No
2021/02/11,17:10,0.182,0.164,0.263,0.250,0.242,0.144,0.086,north-northwest,3.5,No
2021/02/11,17:20,0.181,0.163,0.263,0.249,0.241,0.143,0.087,north,3.4,No
2021/02/11,17:30,0.181,0.163,0.262,0.248,0.241,0.144,0.086,north-northeast,3.4,No
2021/02/11,17:40,0.181,0.163,0.263,0.248,0.243,0.144,0.087,north,4.4,No
2021/02/11,17:50,0.181,0.163,0.263,0.249,0.242,0.144,0.086,north,5.3,No
2021/02/11,18:00,0.182,0.163,0.262,0.249,0.240,0.144,0.087,north,3.7,No
2021/02/11,18:10,0.181,0.164,0.262,0.248,0.241,0.144,0.086,north-northwest,3.0,No
2021/02/11,18:20,0.181,0.163,0.264,0.248,0.241,0.143,0.087,north-northwest,3.2,No
2021/02/11,18:30,0.182,0.163,0.263,0.248,0.241,0.144,0.086,northwest,4.0,No
2021/02/11,18:40,0.182,0.163,0.263,0.250,0.242,0.143,0.085,west-northwest,3.9,No
2021/02/11,18:50,0.181,0.162,0.263,0.248,0.242,0.143,0.087,west-northwest,2.8,No
2021/02/11,19:00,0.182,0.163,0.262,0.249,0.241,0.143,0.087,north-northwest,1.9,No
2021/02/11,19:10,0.181,0.163,0.263,0.248,0.241,0.143,0.087,northwest,2.5,No
2021/02/11,19:20,0.181,0.163,0.263,0.250,0.242,0.144,0.087,northwest,1.8,No
2021/02/11,19:30,0.181,0.163,0.262,0.248,0.242,0.143,0.087,west-northwest,3.6,No
2021/02/11,19:40,0.180,0.163,0.262,0.249,0.243,0.143,0.087,northwest,5.4,No
2021/02/11,19:50,0.181,0.164,0.264,0.248,0.241,0.143,0.086,north-northwest,3.7,No
2021/02/11,20:00,0.181,0.164,0.263,0.249,0.242,0.143,0.086,north-northwest,4.5,No
2021/02/11,20:10,0.181,0.164,0.263,0.248,0.242,0.144,0.087,north-northwest,4.4,No
2021/02/11,20:20,0.182,0.163,0.262,0.248,0.243,0.144,0.087,north-northwest,3.9,No
2021/02/11,20:30,0.181,0.164,0.263,0.248,0.240,0.143,0.087,north-northwest,3.8,No
2021/02/11,20:40,0.181,0.163,0.262,0.248,0.241,0.143,0.086,northwest,4.4,No
2021/02/11,20:50,0.183,0.163,0.263,0.248,0.242,0.143,0.086,north-northwest,4.3,No
2021/02/11,21:00,0.182,0.163,0.263,0.249,0.241,0.144,0.087,north,3.7,No
2021/02/11,21:10,0.182,0.164,0.262,0.249,0.241,0.143,0.087,north,4.5,No
2021/02/11,21:20,0.181,0.162,0.262,0.249,0.241,0.143,0.087,north,5.1,No
2021/02/11,21:30,0.182,0.163,0.263,0.250,0.241,0.144,0.087,north,3.6,No
2021/02/11,21:40,0.181,0.163,0.262,0.248,0.241,0.143,0.087,north,4.8,No
2021/02/11,21:50,0.182,0.163,0.264,0.248,0.241,0.143,0.086,north-northwest,6.3,No
2021/02/11,22:00,0.182,0.164,0.264,0.249,0.242,0.143,0.086,north-northwest,3.9,No
2021/02/11,22:10,0.183,0.164,0.263,0.249,0.242,0.143,0.087,north-northwest,3.4,No
2021/02/11,22:20,0.181,0.163,0.263,0.249,0.241,0.143,0.087,north-northwest,1.7,No
2021/02/11,22:30,0.181,0.163,0.263,0.249,0.243,0.143,0.087,-,CALM,No
2021/02/11,22:40,0.183,0.163,0.263,0.248,0.242,0.144,0.087,north-northwest,0.7,No
2021/02/11,22:50,0.182,0.164,0.263,0.249,0.242,0.144,0.087,north,3.8,No
2021/02/11,23:00,0.181,0.164,0.264,0.248,0.240,0.143,0.087,north,4.1,No
2021/02/11,23:10,0.182,0.164,0.262,0.248,0.241,0.144,0.087,north-northwest,4.7,No
2021/02/11,23:20,0.181,0.163,0.263,0.249,0.241,0.144,0.086,north-northwest,5.3,No
2021/02/11,23:30,0.182,0.164,0.262,0.248,0.240,0.143,0.088,north-northwest,5.2,No
2021/02/11,23:40,0.182,0.164,0.262,0.249,0.241,0.143,0.086,north-northwest,4.6,No
2021/02/11,23:50,0.180,0.163,0.262,0.248,0.242,0.144,0.087,north-northwest,4.6,No
